Hourly Data Report for August 29, 2015

All times are specified in Local Standard Time (LST). Add 1 hour to adjust for Daylight Saving Time where and when it is observed.

TORONTO INTL A
ONTARIO

43°40'36.000" N
79°37'50.000" W
173.40 m
6158731
71624
YYZ

Download Data

Hourly Data (August 2015)
Hourly Data Report for August 29, 2015
Temp Definition
°C
Dew Point Temp Definition
°C
Rel Hum Definition
%
Wind Dir Definition
10's deg

Wind Spd Definition
km/h
Visibility Definition
km
Stn Press Definition
kPa
Hmdx Definition


Wind Chill Definition


Weather Definition


TIME
00:00 Legend Double Dagger 15.5 13.0 85 26 10 24.1 100.05     LegendNANA
01:00 Legend Double Dagger 16.4 13.5 83 24 5 24.1 100.03     Mostly Cloudy
02:00 Legend Double Dagger 16.4 13.5 83 20 4 24.1 99.98     LegendNANA
03:00 Legend Double Dagger 16.0 13.5 85 28 8 24.1 99.98     LegendNANA
04:00 Legend Double Dagger 15.7 13.4 86 28 7 24.1 99.99     Mostly Cloudy
05:00 Legend Double Dagger 15.2 13.1 87 31 4 24.1 99.94     LegendNANA
06:00 Legend Double Dagger 15.8 13.1 84 30 4 24.1 100.00     LegendNANA
07:00 Legend Double Dagger 16.6 13.4 81 24 5 24.1 100.03     Mostly Cloudy
08:00 Legend Double Dagger 18.5 14.7 78 23 8 24.1 100.02     LegendNANA
09:00 Legend Double Dagger 19.8 14.7 72 24 8 24.1 100.01     LegendNANA
10:00 Legend Double Dagger 20.6 14.6 68 24 10 24.1 100.01     Cloudy
11:00 Legend Double Dagger 21.4 16.0 71 22 8 24.1 100.04 26   LegendNANA
12:00 Legend Double Dagger 22.5 16.2 67 27 7 24.1 99.99 27   LegendNANA
13:00 Legend Double Dagger 23.3 16.5 65 13 11 24.1 99.95 28   Cloudy
14:00 Legend Double Dagger 24.0 16.7 63 12 9 24.1 99.90 29   LegendNANA
15:00 Legend Double Dagger 23.4 16.1 63 14 10 24.1 99.83 28   LegendNANA
16:00 Legend Double Dagger 23.2 15.9 63 14 12 24.1 99.81 28   Cloudy
17:00 Legend Double Dagger 22.8 15.3 62 13 9 24.1 99.80 27   LegendNANA
18:00 Legend Double Dagger 22.0 15.2 65 16 9 24.1 99.78 26   LegendNANA
19:00 Legend Double Dagger 21.5 15.0 66 5 7 24.1 99.77 25   Cloudy
20:00 Legend Double Dagger 21.9 14.9 64 36 1 24.1 99.78 26   LegendNANA
21:00 Legend Double Dagger 21.1 14.8 67 36 1 24.1 99.80 25   LegendNANA
22:00 Legend Double Dagger 20.6 14.6 68 16 4 24.1 99.80     Cloudy
23:00 Legend Double Dagger 20.4 14.6 69 9 5 24.1 99.79     LegendNANA

Notes on Data Quality.

Legend

  • E = Estimated
  • M = Missing
  • NA = Not Available
  • ‡ = Partner data that is not subject to review by the National Climate Archives
Date modified: